"Sample Date","Sample Time","Sample Value","Units","Flow Rate","Sample Interval","Number Channels","Micron Size 0","Counts/Channel 0","Micron Size 1","Counts/Channel 1","Micron Size 2","Counts/Channel 2","Micron Size 3","Counts/Channel 3","Micron Size 4","Counts/Channel 4","Micron Size 5","Counts/Channel 5","Micron Size 6","Counts/Channel 6","Micron Size 7","Counts/Channel 7","Micron Size 8","Counts/Channel 8","Micron Size 9","Counts/Channel 9","Micron Size 10","Counts/Channel 10","Micron Size 11","Counts/Channel 11","Micron Size 12","Counts/Channel 12","Micron Size 13","Counts/Channel 13","Micron Size 14","Counts/Channel 14","Micron Size 15","Counts/Channel 15","Micron Size 16","Counts/Channel 16","Micron Size 17","Counts/Channel 17","Micron Size 18","Counts/Channel 18","Micron Size 19","Counts/Channel 19","Micron Size 20","Counts/Channel 20","Micron Size 21","Counts/Channel 21","Micron Size 22","Counts/Channel 22","Micron Size 23","Counts/Channel 23","Micron Size 24","Counts/Channel 24","Micron Size 25","Counts/Channel 25","Micron Size 26","Counts/Channel 26","Micron Size 27","Counts/Channel 27","Micron Size 28","Counts/Channel 28","Micron Size 29","Counts/Channel 29","Micron Size 30","Counts/Channel 30","Micron Size 31","Counts/Channel 31"
"04/03/08","19:00:03",15837.000,"cc",28256.561,6.00,6,0.100,10488.000,0.200,1721.000,0.300,1463.000,0.500,1562.000,1.000,603.000,5.000,0
"04/03/08","19:00:09",15581.000,"cc",28364.898,6.00,6,0.100,10468.000,0.200,1631.000,0.300,1341.000,0.500,1584.000,1.000,557.000,5.000,0
"04/03/08","19:00:15",15647.000,"cc",28343.838,6.00,6,0.100,10501.000,0.200,1619.000,0.300,1315.000,0.500,1592.000,1.000,620.000,5.000,0
"04/03/08","19:00:21",15536.000,"cc",28301.727,6.00,6,0.100,10411.000,0.200,1699.000,0.300,1351.000,0.500,1569.000,1.000,506.000,5.000,0
"04/03/08","19:00:27",15998.000,"cc",28284.588,6.00,6,0.100,10701.000,0.200,1735.000,0.300,1412.000,0.500,1591.000,1.000,559.000,5.000,0
"04/03/08","19:00:33",15766.000,"cc",28293.172,6.00,6,0.100,10514.000,0.200,1673.000,0.300,1399.000,0.500,1623.000,1.000,557.000,5.000,0
"04/03/08","19:00:39",15928.000,"cc",28306.514,6.00,6,0.100,10621.000,0.200,1693.000,0.300,1411.000,0.500,1622.000,1.000,581.000,5.000,0
"04/03/08","19:00:45",15907.000,"cc",28372.588,6.00,6,0.100,10633.000,0.200,1792.000,0.300,1362.000,0.500,1577.000,1.000,543.000,5.000,0
"04/03/08","19:00:51",15688.000,"cc",28334.197,6.00,6,0.100,10465.000,0.200,1619.000,0.300,1429.000,0.500,1581.000,1.000,594.000,5.000,0
"04/03/08","19:00:57",15847.000,"cc",28333.906,6.00,6,0.100,10499.000,0.200,1731.000,0.300,1467.000,0.500,1600.000,1.000,550.000,5.000,0
"04/03/08","19:01:03",15801.000,"cc",28347.764,6.00,6,0.100,10448.000,0.200,1754.000,0.300,1441.000,0.500,1579.000,1.000,579.000,5.000,0
"04/03/08","19:01:09",15880.000,"cc",28221.557,6.00,6,0.100,10434.000,0.200,1754.000,0.300,1452.000,0.500,1646.000,1.000,594.000,5.000,0
"04/03/08","19:01:15",16167.000,"cc",28326.520,6.00,6,0.100,10783.000,0.200,1738.000,0.300,1495.000,0.500,1621.000,1.000,530.000,5.000,0
"04/03/08","19:01:21",15797.000,"cc",28361.338,6.00,6,0.100,10391.000,0.200,1750.000,0.300,1470.000,0.500,1561.000,1.000,625.000,5.000,0
"04/03/08","19:01:27",15768.000,"cc",28293.756,6.00,6,0.100,10460.000,0.200,1723.000,0.300,1390.000,0.500,1631.000,1.000,564.000,5.000,0
"04/03/08","19:01:33",15675.000,"cc",28266.270,6.00,6,0.100,10343.000,0.200,1775.000,0.300,1432.000,0.500,1590.000,1.000,535.000,5.000,0
"04/03/08","19:01:39",15650.000,"cc",28274.695,6.00,6,0.100,10359.000,0.200,1770.000,0.300,1433.000,0.500,1554.000,1.000,534.000,5.000,0
"04/03/08","19:01:45",15722.000,"cc",28342.398,6.00,6,0.100,10359.000,0.200,1766.000,0.300,1415.000,0.500,1635.000,1.000,547.000,5.000,0
"04/03/08","19:01:51",15858.000,"cc",28292.904,6.00,6,0.100,10632.000,0.200,1730.000,0.300,1394.000,0.500,1525.000,1.000,577.000,5.000,0
"04/03/08","19:01:57",15909.000,"cc",28328.272,6.00,6,0.100,10586.000,0.200,1771.000,0.300,1408.000,0.500,1612.000,1.000,532.000,5.000,0
"04/03/08","19:02:03",15872.000,"cc",28402.813,6.00,6,0.100,10388.000,0.200,1833.000,0.300,1436.000,0.500,1652.000,1.000,563.000,5.000,0
"04/03/08","19:02:09",15823.000,"cc",28327.871,6.00,6,0.100,10518.000,0.200,1644.000,0.300,1439.000,0.500,1628.000,1.000,594.000,5.000,0
"04/03/08","19:02:15",15484.000,"cc",28323.549,6.00,6,0.100,10252.000,0.200,1721.000,0.300,1413.000,0.500,1550.000,1.000,548.000,5.000,0
"04/03/08","19:02:21",15757.000,"cc",28341.400,6.00,6,0.100,10459.000,0.200,1690.000,0.300,1373.000,0.500,1655.000,1.000,580.000,5.000,0
"04/03/08","19:02:27",15733.000,"cc",28365.203,6.00,6,0.100,10447.000,0.200,1689.000,0.300,1420.000,0.500,1609.000,1.000,568.000,5.000,0
"04/03/08","19:02:33",15959.000,"cc",28215.311,6.00,6,0.100,10672.000,0.200,1684.000,0.300,1373.000,0.500,1622.000,1.000,608.000,5.000,0
"04/03/08","19:02:39",15774.000,"cc",28229.404,6.00,6,0.100,10437.000,0.200,1682.000,0.300,1433.000,0.500,1647.000,1.000,575.000,5.000,0
"04/03/08","19:02:45",15516.000,"cc",28272.897,6.00,6,0.100,10416.000,0.200,1700.000,0.300,1347.000,0.500,1488.000,1.000,565.000,5.000,0
"04/03/08","19:02:51",15695.000,"cc",28394.822,6.00,6,0.100,10409.000,0.200,1745.000,0.300,1433.000,0.500,1560.000,1.000,548.000,5.000,0
"04/03/08","19:02:57",15726.000,"cc",28317.006,6.00,6,0.100,10435.000,0.200,1727.000,0.300,1435.000,0.500,1574.000,1.000,555.000,5.000,0
"04/03/08","19:03:03",15651.000,"cc",28297.449,6.00,6,0.100,10310.000,0.200,1737.000,0.300,1415.000,0.500,1650.000,1.000,539.000,5.000,0
"04/03/08","19:03:09",15761.000,"cc",28387.920,6.00,6,0.100,10510.000,0.200,1750.000,0.300,1447.000,0.500,1487.000,1.000,567.000,5.000,0
"04/03/08","19:03:15",15827.000,"cc",28376.045,6.00,6,0.100,10424.000,0.200,1754.000,0.300,1410.000,0.500,1648.000,1.000,591.000,5.000,0
"04/03/08","19:03:21",15653.000,"cc",28259.725,6.00,6,0.100,10366.000,0.200,1710.000,0.300,1451.000,0.500,1581.000,1.000,545.000,5.000,0
"04/03/08","19:03:27",15919.000,"cc",28276.035,6.00,6,0.100,10644.000,0.200,1754.000,0.300,1368.000,0.500,1569.000,1.000,584.000,5.000,0
"04/03/08","19:03:33",15680.000,"cc",28285.512,6.00,6,0.100,10415.000,0.200,1754.000,0.300,1392.000,0.500,1565.000,1.000,554.000,5.000,0
"04/03/08","19:03:39",15924.000,"cc",28320.381,6.00,6,0.100,10524.000,0.200,1734.000,0.300,1507.000,0.500,1575.000,1.000,584.000,5.000,0
"04/03/08","19:03:45",15589.000,"cc",28310.414,6.00,6,0.100,10288.000,0.200,1698.000,0.300,1459.000,0.500,1594.000,1.000,550.000,5.000,0
"04/03/08","19:03:51",15766.000,"cc",28305.772,6.00,6,0.100,10471.000,0.200,1698.000,0.300,1436.000,0.500,1608.000,1.000,553.000,5.000,0
"04/03/08","19:03:57",15962.000,"cc",28471.533,6.00,6,0.100,10442.000,0.200,1781.000,0.300,1466.000,0.500,1702.000,1.000,571.000,5.000,0
"04/03/08","19:04:03",15710.000,"cc",28228.227,6.00,6,0.100,10455.000,0.200,1737.000,0.300,1392.000,0.500,1574.000,1.000,552.000,5.000,0
"04/03/08","19:04:09",15659.000,"cc",28300.398,6.00,6,0.100,10426.000,0.200,1675.000,0.300,1426.000,0.500,1577.000,1.000,555.000,5.000,0
"04/03/08","19:04:15",15471.000,"cc",28259.822,6.00,6,0.100,10299.000,0.200,1702.000,0.300,1360.000,0.500,1551.000,1.000,559.000,5.000,0
"04/03/08","19:04:21",15616.000,"cc",28331.104,6.00,6,0.100,10231.000,0.200,1684.000,0.300,1468.000,0.500,1642.000,1.000,591.000,5.000,0
"04/03/08","19:04:27",15684.000,"cc",28355.479,6.00,6,0.100,10438.000,0.200,1730.000,0.300,1373.000,0.500,1586.000,1.000,557.000,5.000,0
"04/03/08","19:04:33",15574.000,"cc",28359.400,6.00,6,0.100,10329.000,0.200,1687.000,0.300,1450.000,0.500,1567.000,1.000,541.000,5.000,0
"04/03/08","19:04:39",15626.000,"cc",28254.840,6.00,6,0.100,10234.000,0.200,1770.000,0.300,1441.000,0.500,1658.000,1.000,523.000,5.000,0
"04/03/08","19:04:45",15955.000,"cc",28277.104,6.00,6,0.100,10579.000,0.200,1766.000,0.300,1426.000,0.500,1560.000,1.000,624.000,5.000,0
"04/03/08","19:04:51",15753.000,"cc",28330.414,6.00,6,0.100,10345.000,0.200,1723.000,0.300,1451.000,0.500,1674.000,1.000,560.000,5.000,0
"04/03/08","19:04:57",15767.000,"cc",28296.713,6.00,6,0.100,10461.000,0.200,1818.000,0.300,1391.000,0.500,1571.000,1.000,526.000,5.000,0
"04/03/08","19:05:03",16004.000,"cc",28397.252,6.00,6,0.100,10520.000,0.200,1831.000,0.300,1497.000,0.500,1632.000,1.000,524.000,5.000,0
"04/03/08","19:05:09",15812.000,"cc",28273.906,6.00,6,0.100,10413.000,0.200,1804.000,0.300,1476.000,0.500,1557.000,1.000,562.000,5.000,0
"04/03/08","19:05:15",15881.000,"cc",28348.975,6.00,6,0.100,10550.000,0.200,1713.000,0.300,1459.000,0.500,1623.000,1.000,536.000,5.000,0
"04/03/08","19:05:21",15904.000,"cc",28309.512,6.00,6,0.100,10554.000,0.200,1792.000,0.300,1401.000,0.500,1589.000,1.000,568.000,5.000,0
"04/03/08","19:05:27",15711.000,"cc",28256.014,6.00,6,0.100,10391.000,0.200,1742.000,0.300,1470.000,0.500,1596.000,1.000,512.000,5.000,0
"04/03/08","19:05:33",15632.000,"cc",28358.299,6.00,6,0.100,10296.000,0.200,1856.000,0.300,1399.000,0.500,1564.000,1.000,517.000,5.000,0
"04/03/08","19:05:39",15717.000,"cc",28327.123,6.00,6,0.100,10363.000,0.200,1810.000,0.300,1455.000,0.500,1569.000,1.000,520.000,5.000,0
"04/03/08","19:05:45",15991.000,"cc",28335.053,6.00,6,0.100,10500.000,0.200,1750.000,0.300,1458.000,0.500,1686.000,1.000,597.000,5.000,0
"04/03/08","19:05:51",15640.000,"cc",28318.711,6.00,6,0.100,10177.000,0.200,1782.000,0.300,1521.000,0.500,1599.000,1.000,561.000,5.000,0
"04/03/08","19:05:57",15787.000,"cc",28282.836,6.00,6,0.100,10255.000,0.200,1850.000,0.300,1462.000,0.500,1700.000,1.000,520.000,5.000,0
"04/03/08","19:06:03",15624.000,"cc",28304.568,6.00,6,0.100,10165.000,0.200,1774.000,0.300,1512.000,0.500,1606.000,1.000,567.000,5.000,0
"04/03/08","19:06:09",15918.000,"cc",28313.975,6.00,6,0.100,10364.000,0.200,1832.000,0.300,1492.000,0.500,1674.000,1.000,556.000,5.000,0
"04/03/08","19:06:15",15499.000,"cc",28371.619,6.00,6,0.100,9997.000,0.200,1772.000,0.300,1511.000,0.500,1625.000,1.000,594.000,5.000,0
"04/03/08","19:06:21",15543.000,"cc",28329.147,6.00,6,0.100,10028.000,0.200,1794.000,0.300,1529.000,0.500,1606.000,1.000,586.000,5.000,0
"04/03/08","19:06:27",15693.000,"cc",28330.264,6.00,6,0.100,10091.000,0.200,1899.000,0.300,1441.000,0.500,1673.000,1.000,589.000,5.000,0
"04/03/08","19:06:33",15455.000,"cc",28286.531,6.00,6,0.100,10005.000,0.200,1803.000,0.300,1449.000,0.500,1634.000,1.000,564.000,5.000,0
"04/03/08","19:06:39",15675.000,"cc",28279.098,6.00,6,0.100,10024.000,0.200,1833.000,0.300,1514.000,0.500,1690.000,1.000,614.000,5.000,0
"04/03/08","19:06:45",15566.000,"cc",28301.260,6.00,6,0.100,10016.000,0.200,1844.000,0.300,1456.000,0.500,1654.000,1.000,596.000,5.000,0
"04/03/08","19:06:51",15541.000,"cc",28379.984,6.00,6,0.100,10038.000,0.200,1806.000,0.300,1457.000,0.500,1612.000,1.000,628.000,5.000,0
"04/03/08","19:06:57",15519.000,"cc",28321.186,6.00,6,0.100,9882.000,0.200,1843.000,0.300,1500.000,0.500,1705.000,1.000,589.000,5.000,0
"04/03/08","19:07:03",15352.000,"cc",28255.742,6.00,6,0.100,9912.000,0.200,1832.000,0.300,1450.000,0.500,1579.000,1.000,579.000,5.000,0
"04/03/08","19:07:09",15287.000,"cc",28350.781,6.00,6,0.100,9780.000,0.200,1747.000,0.300,1534.000,0.500,1628.000,1.000,598.000,5.000,0
"04/03/08","19:07:15",15318.000,"cc",28339.072,6.00,6,0.100,9750.000,0.200,1819.000,0.300,1506.000,0.500,1693.000,1.000,550.000,5.000,0
"04/03/08","19:07:21",15540.000,"cc",28313.854,6.00,6,0.100,9973.000,0.200,1882.000,0.300,1479.000,0.500,1625.000,1.000,581.000,5.000,0
"04/03/08","19:07:27",15599.000,"cc",28326.910,6.00,6,0.100,9988.000,0.200,1852.000,0.300,1538.000,0.500,1640.000,1.000,581.000,5.000,0
"04/03/08","19:07:33",15337.000,"cc",28308.061,6.00,6,0.100,9791.000,0.200,1809.000,0.300,1554.000,0.500,1643.000,1.000,540.000,5.000,0
"04/03/08","19:07:39",15325.000,"cc",28280.160,6.00,6,0.100,9769.000,0.200,1827.000,0.300,1545.000,0.500,1612.000,1.000,572.000,5.000,0
"04/03/08","19:07:45",15550.000,"cc",28288.139,6.00,6,0.100,9872.000,0.200,1915.000,0.300,1482.000,0.500,1706.000,1.000,575.000,5.000,0
"04/03/08","19:07:51",15504.000,"cc",28298.139,6.00,6,0.100,9782.000,0.200,1842.000,0.300,1607.000,0.500,1712.000,1.000,561.000,5.000,0
"04/03/08","19:07:57",15400.000,"cc",28373.721,6.00,6,0.100,9622.000,0.200,1937.000,0.300,1559.000,0.500,1687.000,1.000,595.000,5.000,0
"04/03/08","19:08:03",15460.000,"cc",28310.088,6.00,6,0.100,9775.000,0.200,1806.000,0.300,1600.000,0.500,1690.000,1.000,589.000,5.000,0
"04/03/08","19:08:09",15376.000,"cc",28372.486,6.00,6,0.100,9840.000,0.200,1786.000,0.300,1524.000,0.500,1621.000,1.000,605.000,5.000,0
"04/03/08","19:08:15",15246.000,"cc",28317.885,6.00,6,0.100,9570.000,0.200,1871.000,0.300,1526.000,0.500,1701.000,1.000,578.000,5.000,0
"04/03/08","19:08:21",15263.000,"cc",28348.496,6.00,6,0.100,9622.000,0.200,1881.000,0.300,1510.000,0.500,1651.000,1.000,599.000,5.000,0
"04/03/08","19:08:27",15514.000,"cc",28274.268,6.00,6,0.100,9764.000,0.200,1919.000,0.300,1550.000,0.500,1714.000,1.000,567.000,5.000,0
"04/03/08","19:08:33",15197.000,"cc",28335.316,6.00,6,0.100,9401.000,0.200,1912.000,0.300,1596.000,0.500,1683.000,1.000,605.000,5.000,0
"04/03/08","19:08:39",15573.000,"cc",28306.969,6.00,6,0.100,9802.000,0.200,1902.000,0.300,1532.000,0.500,1730.000,1.000,607.000,5.000,0
"04/03/08","19:08:45",15280.000,"cc",28254.971,6.00,6,0.100,9517.000,0.200,1903.000,0.300,1570.000,0.500,1720.000,1.000,570.000,5.000,0
"04/03/08","19:08:51",15346.000,"cc",28265.111,6.00,6,0.100,9593.000,0.200,1894.000,0.300,1588.000,0.500,1694.000,1.000,577.000,5.000,0
"04/03/08","19:08:57",15356.000,"cc",28375.904,6.00,6,0.100,9573.000,0.200,1831.000,0.300,1558.000,0.500,1813.000,1.000,581.000,5.000,0
"04/03/08","19:09:03",15263.000,"cc",28295.914,6.00,6,0.100,9541.000,0.200,1850.000,0.300,1577.000,0.500,1686.000,1.000,609.000,5.000,0
"04/03/08","19:09:09",15429.000,"cc",28365.576,6.00,6,0.100,9619.000,0.200,1899.000,0.300,1570.000,0.500,1738.000,1.000,603.000,5.000,0
"04/03/08","19:09:15",15324.000,"cc",28286.373,6.00,6,0.100,9585.000,0.200,1962.000,0.300,1541.000,0.500,1685.000,1.000,551.000,5.000,0
"04/03/08","19:09:21",15349.000,"cc",28358.746,6.00,6,0.100,9607.000,0.200,1925.000,0.300,1577.000,0.500,1671.000,1.000,569.000,5.000,0
"04/03/08","19:09:27",15245.000,"cc",28291.852,6.00,6,0.100,9408.000,0.200,1987.000,0.300,1552.000,0.500,1701.000,1.000,597.000,5.000,0
"04/03/08","19:09:33",15274.000,"cc",28316.289,6.00,6,0.100,9394.000,0.200,2013.000,0.300,1511.000,0.500,1766.000,1.000,590.000,5.000,0
"04/03/08","19:09:39",15306.000,"cc",28283.404,6.00,6,0.100,9431.000,0.200,1965.000,0.300,1555.000,0.500,1759.000,1.000,596.000,5.000,0
"04/03/08","19:09:45",15171.000,"cc",28331.523,6.00,6,0.100,9352.000,0.200,1943.000,0.300,1583.000,0.500,1696.000,1.000,597.000,5.000,0
"04/03/08","19:09:51",15173.000,"cc",28329.561,6.00,6,0.100,9425.000,0.200,1901.000,0.300,1612.000,0.500,1663.000,1.000,572.000,5.000,0
"04/03/08","19:09:57",15394.000,"cc",28299.375,6.00,6,0.100,9453.000,0.200,1969.000,0.300,1609.000,0.500,1784.000,1.000,579.000,5.000,0
"04/03/08","19:10:03",15353.000,"cc",28320.088,6.00,6,0.100,9592.000,0.200,1974.000,0.300,1575.000,0.500,1597.000,1.000,615.000,5.000,0
"04/03/08","19:10:09",15371.000,"cc",28319.232,6.00,6,0.100,9474.000,0.200,1974.000,0.300,1599.000,0.500,1747.000,1.000,577.000,5.000,0
"04/03/08","19:10:15",15132.000,"cc",28351.147,6.00,6,0.100,9307.000,0.200,1938.000,0.300,1547.000,0.500,1738.000,1.000,602.000,5.000,0
"04/03/08","19:10:21",15499.000,"cc",28329.359,6.00,6,0.100,9579.000,0.200,1952.000,0.300,1603.000,0.500,1754.000,1.000,611.000,5.000,0
"04/03/08","19:10:27",15315.000,"cc",28268.143,6.00,6,0.100,9563.000,0.200,1860.000,0.300,1593.000,0.500,1707.000,1.000,592.000,5.000,0
"04/03/08","19:10:33",15386.000,"cc",28345.678,6.00,6,0.100,9457.000,0.200,1880.000,0.300,1630.000,0.500,1812.000,1.000,607.000,5.000,0
"04/03/08","19:10:39",15413.000,"cc",28387.236,6.00,6,0.100,9511.000,0.200,1945.000,0.300,1600.000,0.500,1789.000,1.000,568.000,5.000,0
"04/03/08","19:10:45",15317.000,"cc",28214.830,6.00,6,0.100,9540.000,0.200,1966.000,0.300,1604.000,0.500,1630.000,1.000,577.000,5.000,0
"04/03/08","19:10:51",15313.000,"cc",28343.631,6.00,6,0.100,9347.000,0.200,1988.000,0.300,1598.000,0.500,1781.000,1.000,599.000,5.000,0
"04/03/08","19:10:57",15309.000,"cc",28312.861,6.00,6,0.100,9432.000,0.200,1935.000,0.300,1620.000,0.500,1735.000,1.000,587.000,5.000,0
"04/03/08","19:11:03",15215.000,"cc",28263.865,6.00,6,0.100,9353.000,0.200,1988.000,0.300,1563.000,0.500,1724.000,1.000,587.000,5.000,0
"04/03/08","19:11:09",15196.000,"cc",28318.932,6.00,6,0.100,9257.000,0.200,1946.000,0.300,1612.000,0.500,1792.000,1.000,589.000,5.000,0
"04/03/08","19:11:15",15291.000,"cc",28398.465,6.00,6,0.100,9324.000,0.200,1966.000,0.300,1606.000,0.500,1760.000,1.000,635.000,5.000,0
"04/03/08","19:11:21",15213.000,"cc",28322.772,6.00,6,0.100,9428.000,0.200,1912.000,0.300,1571.000,0.500,1717.000,1.000,585.000,5.000,0
"04/03/08","19:11:27",15239.000,"cc",28328.777,6.00,6,0.100,9407.000,0.200,1953.000,0.300,1559.000,0.500,1727.000,1.000,593.000,5.000,0
"04/03/08","19:11:33",15341.000,"cc",28347.256,6.00,6,0.100,9469.000,0.200,1884.000,0.300,1590.000,0.500,1783.000,1.000,615.000,5.000,0
"04/03/08","19:11:39",15385.000,"cc",28272.328,6.00,6,0.100,9475.000,0.200,2004.000,0.300,1545.000,0.500,1696.000,1.000,665.000,5.000,0
"04/03/08","19:11:45",15196.000,"cc",28292.596,6.00,6,0.100,9390.000,0.200,1891.000,0.300,1517.000,0.500,1805.000,1.000,593.000,5.000,0
"04/03/08","19:11:51",15291.000,"cc",28317.900,6.00,6,0.100,9451.000,0.200,1894.000,0.300,1540.000,0.500,1815.000,1.000,591.000,5.000,0
"04/03/08","19:11:57",15226.000,"cc",28263.670,6.00,6,0.100,9409.000,0.200,1905.000,0.300,1594.000,0.500,1732.000,1.000,586.000,5.000,0
"04/03/08","19:12:03",15512.000,"cc",28380.932,6.00,6,0.100,9534.000,0.200,2035.000,0.300,1541.000,0.500,1791.000,1.000,611.000,5.000,0
"04/03/08","19:12:09",15218.000,"cc",28316.322,6.00,6,0.100,9375.000,0.200,1988.000,0.300,1562.000,0.500,1700.000,1.000,593.000,5.000,0
"04/03/08","19:12:15",15521.000,"cc",28221.397,6.00,6,0.100,9620.000,0.200,1957.000,0.300,1540.000,0.500,1813.000,1.000,591.000,5.000,0
"04/03/08","19:12:21",15152.000,"cc",28241.416,6.00,6,0.100,9264.000,0.200,1966.000,0.300,1578.000,0.500,1735.000,1.000,609.000,5.000,0
"04/03/08","19:12:27",15282.000,"cc",28265.111,6.00,6,0.100,9271.000,0.200,2018.000,0.300,1617.000,0.500,1735.000,1.000,641.000,5.000,0
"04/03/08","19:12:33",15343.000,"cc",28369.629,6.00,6,0.100,9423.000,0.200,1941.000,0.300,1588.000,0.500,1746.000,1.000,645.000,5.000,0
"04/03/08","19:12:39",15226.000,"cc",28284.676,6.00,6,0.100,9288.000,0.200,2030.000,0.300,1573.000,0.500,1754.000,1.000,581.000,5.000,0
"04/03/08","19:12:45",15277.000,"cc",28368.135,6.00,6,0.100,9379.000,0.200,1942.000,0.300,1552.000,0.500,1765.000,1.000,639.000,5.000,0
"04/03/08","19:12:51",15183.000,"cc",28385.215,6.00,6,0.100,9294.000,0.200,1923.000,0.300,1656.000,0.500,1711.000,1.000,599.000,5.000,0
"04/03/08","19:12:57",15369.000,"cc",28276.479,6.00,6,0.100,9407.000,0.200,1963.000,0.300,1605.000,0.500,1743.000,1.000,651.000,5.000,0
"04/03/08","19:13:03",15162.000,"cc",28281.129,6.00,6,0.100,9343.000,0.200,1929.000,0.300,1569.000,0.500,1760.000,1.000,561.000,5.000,0
"04/03/08","19:13:09",15477.000,"cc",28307.467,6.00,6,0.100,9570.000,0.200,1949.000,0.300,1604.000,0.500,1754.000,1.000,600.000,5.000,0
"04/03/08","19:13:15",15519.000,"cc",28347.145,6.00,6,0.100,9472.000,0.200,1991.000,0.300,1581.000,0.500,1869.000,1.000,606.000,5.000,0
"04/03/08","19:13:21",15051.000,"cc",28237.680,6.00,6,0.100,9229.000,0.200,1928.000,0.300,1601.000,0.500,1685.000,1.000,608.000,5.000,0
"04/03/08","19:13:27",15352.000,"cc",28320.147,6.00,6,0.100,9480.000,0.200,1932.000,0.300,1546.000,0.500,1748.000,1.000,646.000,5.000,0
"04/03/08","19:13:33",15279.000,"cc",28350.615,6.00,6,0.100,9420.000,0.200,1987.000,0.300,1529.000,0.500,1739.000,1.000,604.000,5.000,0
"04/03/08","19:13:39",15155.000,"cc",28351.504,6.00,6,0.100,9207.000,0.200,1921.000,0.300,1588.000,0.500,1840.000,1.000,599.000,5.000,0
"04/03/08","19:13:45",15467.000,"cc",28337.143,6.00,6,0.100,9547.000,0.200,1984.000,0.300,1525.000,0.500,1815.000,1.000,596.000,5.000,0
"04/03/08","19:13:51",15452.000,"cc",28411.504,6.00,6,0.100,9452.000,0.200,1975.000,0.300,1633.000,0.500,1803.000,1.000,589.000,5.000,0
"04/03/08","19:13:57",15636.000,"cc",28361.109,6.00,6,0.100,9579.000,0.200,1991.000,0.300,1622.000,0.500,1773.000,1.000,671.000,5.000,0
"04/03/08","19:14:03",15424.000,"cc",28256.568,6.00,6,0.100,9387.000,0.200,1969.000,0.300,1653.000,0.500,1806.000,1.000,609.000,5.000,0
"04/03/08","19:14:09",15364.000,"cc",28303.924,6.00,6,0.100,9332.000,0.200,1930.000,0.300,1585.000,0.500,1848.000,1.000,669.000,5.000,0
"04/03/08","19:14:15",15434.000,"cc",28302.088,6.00,6,0.100,9498.000,0.200,1970.000,0.300,1557.000,0.500,1761.000,1.000,648.000,5.000,0
"04/03/08","19:14:21",15552.000,"cc",28387.992,6.00,6,0.100,9639.000,0.200,1969.000,0.300,1537.000,0.500,1778.000,1.000,629.000,5.000,0
"04/03/08","19:14:27",15417.000,"cc",28259.195,6.00,6,0.100,9415.000,0.200,1972.000,0.300,1622.000,0.500,1812.000,1.000,596.000,5.000,0
"04/03/08","19:14:33",15493.000,"cc",28259.658,6.00,6,0.100,9439.000,0.200,2012.000,0.300,1584.000,0.500,1839.000,1.000,619.000,5.000,0
"04/03/08","19:14:39",15440.000,"cc",28294.940,6.00,6,0.100,9355.000,0.200,2035.000,0.300,1613.000,0.500,1780.000,1.000,657.000,5.000,0
"04/03/08","19:14:45",15410.000,"cc",28317.420,6.00,6,0.100,9303.000,0.200,2034.000,0.300,1609.000,0.500,1805.000,1.000,659.000,5.000,0
"04/03/08","19:14:51",15217.000,"cc",28349.385,6.00,6,0.100,9286.000,0.200,1973.000,0.300,1643.000,0.500,1709.000,1.000,606.000,5.000,0
"04/03/08","19:14:57",15518.000,"cc",28322.623,6.00,6,0.100,9488.000,0.200,1987.000,0.300,1595.000,0.500,1825.000,1.000,623.000,5.000,0
"04/03/08","19:15:03",15576.000,"cc",28335.684,6.00,6,0.100,9647.000,0.200,1910.000,0.300,1563.000,0.500,1859.000,1.000,597.000,5.000,0
"04/03/08","19:15:09",15446.000,"cc",28348.443,6.00,6,0.100,9298.000,0.200,2019.000,0.300,1597.000,0.500,1876.000,1.000,656.000,5.000,0
"04/03/08","19:15:15",15384.000,"cc",28321.522,6.00,6,0.100,9355.000,0.200,1986.000,0.300,1608.000,0.500,1822.000,1.000,613.000,5.000,0
"04/03/08","19:15:21",15347.000,"cc",28254.785,6.00,6,0.100,9463.000,0.200,1867.000,0.300,1612.000,0.500,1775.000,1.000,630.000,5.000,0
"04/03/08","19:15:27",15646.000,"cc",28310.467,6.00,6,0.100,9687.000,0.200,1891.000,0.300,1624.000,0.500,1825.000,1.000,619.000,5.000,0
"04/03/08","19:15:33",15549.000,"cc",28343.141,6.00,6,0.100,9563.000,0.200,1939.000,0.300,1614.000,0.500,1810.000,1.000,623.000,5.000,0
"04/03/08","19:15:39",15444.000,"cc",28312.045,6.00,6,0.100,9443.000,0.200,1994.000,0.300,1607.000,0.500,1783.000,1.000,617.000,5.000,0
"04/03/08","19:15:45",15370.000,"cc",28262.119,6.00,6,0.100,9337.000,0.200,1981.000,0.300,1569.000,0.500,1839.000,1.000,644.000,5.000,0
"04/03/08","19:15:51",15384.000,"cc",28300.301,6.00,6,0.100,9463.000,0.200,1982.000,0.300,1605.000,0.500,1743.000,1.000,591.000,5.000,0
"04/03/08","19:15:57",15448.000,"cc",28327.201,6.00,6,0.100,9428.000,0.200,2003.000,0.300,1610.000,0.500,1799.000,1.000,608.000,5.000,0
"04/03/08","19:16:03",15415.000,"cc",28262.383,6.00,6,0.100,9578.000,0.200,1931.000,0.300,1508.000,0.500,1773.000,1.000,625.000,5.000,0
"04/03/08","19:16:09",15448.000,"cc",28307.938,6.00,6,0.100,9398.000,0.200,2048.000,0.300,1604.000,0.500,1781.000,1.000,617.000,5.000,0
"04/03/08","19:16:15",15430.000,"cc",28333.543,6.00,6,0.100,9439.000,0.200,2037.000,0.300,1531.000,0.500,1807.000,1.000,616.000,5.000,0
"04/03/08","19:16:21",15478.000,"cc",28333.357,6.00,6,0.100,9530.000,0.200,1968.000,0.300,1585.000,0.500,1811.000,1.000,584.000,5.000,0
"04/03/08","19:16:27",15483.000,"cc",28289.539,6.00,6,0.100,9449.000,0.200,2045.000,0.300,1614.000,0.500,1781.000,1.000,594.000,5.000,0